Terminal Aerodrome Forecast
Issued by NWS Spokane, WA

Home | Current Version | Previous Version | Text Only | Print | Product List | Glossary On
Versions: 1 2 3 4 5 6 7 8 9 10 11 12 13 14 15
000
FTUS46 KOTX 182320
TAFLWS
TAF
KLWS 182320Z 1900/1924 31011G20KT P6SM SCT070 SCT200
     FM190300 VRB04KT P6SM FEW250
     FM191300 10005KT P6SM FEW100 SCT200
     FM192300 31010G20KT P6SM SCT080 BKN100 BKN200=

USA.gov is the U.S. government's official web portal to all federal, state and local government web resources and services.